This is the latest recevied weather packets stored in our database for station/object K1ABC. If no packets are shown the sender has not sent any weather packets the latest 10 day(s).
| Time | Temp. | Humidity | Pressure | Rain* | Wind** | Luminosity | Snow |
|---|---|---|---|---|---|---|---|
| 1777578024 | 11.67° C | 91% | 1005.5 hPa | 0 mm | - | - | - |
| 1777577333 | 11.67° C | 92% | 1005.6 hPa | 0 mm | - | - | - |
| 1777576747 | 11.67° C | 93% | 1005.6 hPa | 0 mm | - | - | - |
| 1777575797 | 11.11° C | 93% | 1005.7 hPa | 0 mm | - | - | - |
| 1777574967 | 10.56° C | 92% | 1005.9 hPa | 0 mm | - | - | - |
| 1777573758 | 10.56° C | 92% | 1006.2 hPa | 0 mm | - | - | - |
| 1777572696 | 10.56° C | 92% | 1006.4 hPa | 0 mm | - | - | - |
| 1777571877 | 10.56° C | 92% | 1006.7 hPa | 0 mm | - | - | - |
| 1777571424 | 10.56° C | 93% | 1006.6 hPa | 0 mm | - | - | - |
| 1777570847 | 10.56° C | 93% | 1006.7 hPa | 0 mm | - | - | - |
| 1777570283 | 10.56° C | 93% | 1006.6 hPa | 0 mm | - | - | - |
| 1777570085 | 10.56° C | 93% | 1006.6 hPa | 0 mm | - | - | - |
| 1777569888 | 10.56° C | 93% | 1006.6 hPa | 0 mm | - | - | - |
| 1777569692 | 10.56° C | 93% | 1006.6 hPa | 0 mm | - | - | - |
| 1777569489 | 10° C | 93% | 1006.8 hPa | 1.02 mm | - | - | - |
| 1777567793 | 10° C | 93% | 1006.6 hPa | 1.02 mm | - | - | - |
| 1777566848 | 10° C | 92% | 1006.7 hPa | 3.05 mm | - | - | - |
| 1777566651 | 10° C | 92% | 1006.6 hPa | 2.29 mm | - | - | - |
| 1777565961 | 10° C | 93% | 1006.6 hPa | 1.02 mm | - | - | - |
| 1777565391 | 10° C | 93% | 1006.8 hPa | 1.02 mm | - | - | - |
| 1777564816 | 10° C | 93% | 1006.8 hPa | 0 mm | - | - | - |
| 1777564109 | 10° C | 93% | 1006.9 hPa | 0 mm | - | - | - |
| 1777563283 | 10° C | 93% | 1007.1 hPa | 0 mm | - | - | - |
| 1777562470 | 10° C | 93% | 1007.1 hPa | 0 mm | - | - | - |
| 1777561267 | 10° C | 94% | 1007.3 hPa | 2.29 mm | - | - | - |
* Rain latest hour (hover to see other rain measurements)
** Current wind speed in m/s (hover to see current wind gust speed)